Location: Artiguedieu
(43.5000°N, 0.5454°E)
Time: 13:08:19
(UTC+00:00)

ATLAS 3B R/B - Pass Details

Date: 06 December 2020
Orbit: 1013 x 1182 km, 63.8° (Epoch: 08 January)

Event Time Altitude Azimuth Distance (km) Brightness Sun altitude
Exits shadow 03:36:30 38° 131° (SE) 1,656 3.8 -39.0°
Drops below altitude 10° 03:40:41 10° 139° (SE) 3,027 5.4 -38.3°
Sets 03:43:25 0° 141° (SE) 4,005 6.1 -37.8°
